Location: Kalispell
(48.1967°N, 114.3128°W)
Time: 09:13:00
(UTC-07:00)

Amateur Radio Satellites - All Passes

Search period start: 22 January 2017 08:43
Search period end: 23 January 2017 08:43
Location: Kalispell, 48.1967°N, 114.3128°W

Satellite Date Start Highest point End Downlink Frequencies (MHz)
Time Altitude Azimuth
RS-15 22 Jan 08:43:57 08:56:22 82° 237° (WSW) 09:08:20 29.354- 29.394
CUBEBUG 2 22 Jan 08:47:16 08:51:33 57° 101° (E) 08:55:57 437.445
CUTE-I 22 Jan 08:48:46 08:52:29 20° 303° (WNW) 08:56:12 437.470
HO-68 22 Jan 08:51:10 08:58:24 87° 290° (WNW) 09:05:35 435.675
CUTE 1.7 + AOD 2 22 Jan 08:51:22 08:55:37 58° 287° (WNW) 08:59:50 437.475
FUNcube-1 22 Jan 09:01:07 09:05:02 30° 95° (E) 09:08:59 145.935
GONETS M04 22 Jan 09:03:06 09:10:16 29° 280° (W) 09:17:27
UWE-3 22 Jan 09:11:14 09:15:36 66° 102° (ESE) 09:20:03 435.000/436.395/437.385
SO-50 22 Jan 09:15:51 09:20:21 45° 316° (NW) 09:24:49 436.795
CANX-2 22 Jan 09:21:32 09:25:10 27° 294° (WNW) 09:28:47 2200.000
ZACube-1 22 Jan 09:25:12 09:29:33 57° 100° (E) 09:33:57 437.345
SEEDS 22 Jan 09:27:54 09:31:50 36° 291° (WNW) 09:35:43 437.485
COMPASS 1 22 Jan 09:29:04 09:33:10 50° 288° (WNW) 09:37:13 437.405
UNISAT 6 22 Jan 09:36:54 09:41:06 64° 73° (ENE) 09:45:21 437.425
AAUSAT CUBESAT 2 22 Jan 09:38:09 09:42:14 51° 288° (WNW) 09:46:16 437.432
PCSat 22 Jan 09:44:30 09:49:58 81° 238° (WSW) 09:55:24 145.827
CINEMA 3 22 Jan 09:45:38 09:47:21 12° 301° (WNW) 09:49:03 145.822/145.860
TIGRISAT 22 Jan 09:49:32 09:53:46 80° 75° (ENE) 09:58:03 435.000
NOAA 18 22 Jan 09:55:21 09:57:22 12° 311° (NW) 09:59:23 137.9125
Oscar 11 22 Jan 09:57:43 10:02:06 82° 286° (WNW) 10:06:28 145.826/435.025
ANTELSAT 22 Jan 10:05:23 10:09:36 67° 258° (WSW) 10:13:54 437.575/2403.000
PRISM 22 Jan 10:11:34 10:14:33 19° 268° (W) 10:17:33 437.425
JAS-2 22 Jan 10:17:02 10:22:23 57° 68° (ENE) 10:28:22 435.910
CUBEBUG 2 22 Jan 10:24:51 10:27:49 18° 298° (WNW) 10:30:49 437.445
DELFI C3 22 Jan 10:36:07 10:40:09 86° 289° (WNW) 10:44:08 145.870
FUNcube-1 22 Jan 10:37:21 10:41:15 32° 293° (WNW) 10:45:12 145.935
QB50P1 22 Jan 10:38:22 10:42:04 31° 67° (ENE) 10:45:46 145.935-145.965
HO-68 22 Jan 10:39:56 10:45:14 23° 309° (NW) 10:50:30 435.675
POLYITAN 1 22 Jan 10:43:07 10:46:54 34° 68° (ENE) 10:50:44 437.675
QB50P2 22 Jan 10:44:20 10:48:13 38° 68° (ENE) 10:52:07 145.880/145.840
ESTCUBE 1 22 Jan 10:47:01 10:48:11 11° 86° (E) 10:49:21 437.505/2401.250
UWE-3 22 Jan 10:48:52 10:51:37 17° 299° (WNW) 10:54:24 435.000/436.395/437.385
HUMSAT D 22 Jan 10:52:55 10:57:14 80° 102° (ESE) 11:01:33 437.325/437.525
RS-15 22 Jan 10:57:52 11:06:57 26° 261° (W) 11:15:50 29.354- 29.394
SO-50 22 Jan 10:59:21 11:01:57 15° 339° (NNW) 11:04:33 436.795
ZACube-1 22 Jan 11:02:24 11:05:28 19° 298° (WNW) 11:08:33 437.345
POPSAT HIP 1 22 Jan 11:05:02 11:09:07 56° 72° (ENE) 11:13:13 437.405
BY70-1 22 Jan 11:08:08 11:10:53 24° 95° (E) 11:13:30 436.1900
DUCHIFAT 1 22 Jan 11:13:01 11:17:07 59° 72° (ENE) 11:21:14 145.980
UNISAT 6 22 Jan 11:15:58 11:18:17 14° 271° (W) 11:20:36 437.425
NANOSAT C BR1 22 Jan 11:19:41 11:23:51 75° 74° (ENE) 11:28:02 145.865
Cosmos 2491 22 Jan 11:21:33 11:27:28 19° 53° (NE) 11:33:23 435.465 / 435.565
Oscar 19 22 Jan 11:22:31 11:25:06 14° 53° (NE) 11:27:42 437.125/150
CUBEBUG 1 22 Jan 11:28:13 11:30:59 16° 90° (E) 11:33:44 437.445
TIGRISAT 22 Jan 11:29:43 11:31:05 11° 273° (W) 11:32:25 435.000
PCSat 22 Jan 11:29:54 11:32:30 14° 257° (WSW) 11:35:04 145.827
Oscar 11 22 Jan 11:36:05 11:37:30 11° 304° (WNW) 11:38:56 145.826/435.025
BUGSAT 1 22 Jan 11:38:52 11:42:41 41° 70° (ENE) 11:46:29 437.445
AISAT 22 Jan 11:50:19 11:53:22 18° 91° (E) 11:56:25 437.250
Gurwin Techsat 1B 22 Jan 11:54:01 11:56:56 15° 54° (NE) 11:59:51 435.225
50 SAT 22 Jan 11:55:03 11:56:29 12° 90° (E) 11:57:54 437.505
JAS-2 22 Jan 12:03:39 12:08:02 24° 271° (W) 12:12:47 435.910
DELFI C3 22 Jan 12:13:33 12:14:16 10° 303° (WNW) 12:14:59 145.870
QB50P1 22 Jan 12:14:11 12:17:49 28° 265° (W) 12:21:29 145.935-145.965
POLYITAN 1 22 Jan 12:19:17 12:22:46 25° 266° (W) 12:26:17 437.675
QB50P2 22 Jan 12:20:46 12:24:08 23° 266° (W) 12:27:32 145.880/145.840
ESTCUBE 1 22 Jan 12:21:07 12:25:42 88° 112° (ESE) 12:30:13 437.505/2401.250
CUSAT 1 22 Jan 12:22:20 12:28:06 21° 54° (NE) 12:33:41 437.405
VELOX 1 22 Jan 12:22:52 12:26:55 35° 97° (E) 12:30:57 145.980
HUMSAT D 22 Jan 12:30:06 12:32:16 14° 301° (WNW) 12:34:25 437.325/437.525
SPROUT 22 Jan 12:34:43 12:38:40 36° 97° (E) 12:42:35 437.525
BY70-1 22 Jan 12:38:28 12:41:03 21° 294° (WNW) 12:43:30 436.1900
UKube-1 22 Jan 12:42:31 12:45:49 21° 93° (E) 12:49:05 .
POPSAT HIP 1 22 Jan 12:42:39 12:45:15 16° 270° (W) 12:47:52 437.405
SO-50 22 Jan 12:43:46 12:44:25 10° 4° (N) 12:45:05 436.795
DX 1 22 Jan 12:47:33 12:51:26 31° 96° (E) 12:55:17 434.975-435.025
DUCHIFAT 1 22 Jan 12:50:45 12:53:11 15° 270° (W) 12:55:37 145.980
AO-7 22 Jan 12:57:58 13:04:04 23° 44° (NE) 13:10:10 29.400- 29.500
Oscar 19 22 Jan 12:58:24 13:03:35 77° 73° (ENE) 13:08:49 437.125/150
NANOSAT C BR1 22 Jan 12:58:31 13:00:06 12° 272° (W) 13:01:41 145.865
AIST 1 22 Jan 13:00:51 13:03:01 14° 83° (E) 13:05:11
CUBEBUG 1 22 Jan 13:03:23 13:07:39 57° 288° (WNW) 13:11:52 437.445
BUGSAT 1 22 Jan 13:15:14 13:18:14 20° 267° (W) 13:21:13 437.445
Cosmos 2491 22 Jan 13:17:19 13:26:08 73° 78° (ENE) 13:34:57 435.465 / 435.565
AO-85 22 Jan 13:19:28 13:23:12 24° 116° (ESE) 13:26:45 145.980
Cosmos 2504 22 Jan 13:19:54 13:24:10 15° 74° (ENE) 13:28:19 435.465 / 435.565
AISAT 22 Jan 13:25:52 13:30:10 52° 289° (WNW) 13:34:24 437.250
50 SAT 22 Jan 13:26:32 13:30:02 55° 287° (WNW) 13:33:30 437.505
YUBILEINY 22 Jan 13:28:00 13:35:31 33° 82° (E) 13:43:03 435.215
Gurwin Techsat 1B 22 Jan 13:30:46 13:36:04 81° 73° (ENE) 13:41:25 435.225
DANDE 22 Jan 13:33:58 13:40:10 26° 60° (ENE) 13:46:48 436.750
ITAMSAT 1 22 Jan 13:47:18 13:51:40 28° 62° (ENE) 13:56:04 435.822/435.867
TISAT 1 22 Jan 13:54:29 13:58:23 37° 98° (E) 14:02:16 437.305
VELOX 1 22 Jan 13:59:32 14:03:17 28° 295° (WNW) 14:07:00 145.980
ESTCUBE 1 22 Jan 13:59:35 14:01:49 14° 303° (WNW) 14:04:03 437.505/2401.250
CUSAT 1 22 Jan 14:03:23 14:11:27 75° 76° (ENE) 14:18:53 437.405
BEESAT 22 Jan 14:06:13 14:08:07 12° 87° (E) 14:10:01 436.000
SWISSCUBE 22 Jan 14:07:34 14:10:07 14° 88° (E) 14:12:40 437.505
SPROUT 22 Jan 14:10:55 14:14:27 26° 295° (WNW) 14:17:58 437.525
UKube-1 22 Jan 14:17:57 14:22:03 44° 291° (WNW) 14:26:08 .
SO-50 22 Jan 14:23:25 14:26:43 19° 29° (NNE) 14:29:58 436.795
DX 1 22 Jan 14:23:47 14:27:36 30° 294° (WNW) 14:31:23 434.975-435.025
AIST 1 22 Jan 14:35:43 14:40:03 66° 281° (W) 14:44:24
Oscar 19 22 Jan 14:40:15 14:43:30 17° 271° (W) 14:46:46 437.125/150
AO-7 22 Jan 14:47:15 14:55:35 76° 66° (ENE) 15:03:59 29.400- 29.500
AO-85 22 Jan 14:58:56 15:03:25 52° 313° (NW) 15:07:35 145.980
Cosmos 2504 22 Jan 15:07:38 15:16:08 69° 94° (E) 15:24:06 435.465 / 435.565
O/OREOS (USA 219) 22 Jan 15:07:43 15:11:48 33° 54° (NE) 15:15:54 437.305
ITUPSAT 1 22 Jan 15:08:49 15:13:27 45° 99° (E) 15:18:03 437.325
Gurwin Techsat 1B 22 Jan 15:13:30 15:16:41 16° 272° (W) 15:19:53 435.225
Cosmos 2491 22 Jan 15:15:05 15:22:12 29° 280° (W) 15:29:21 435.465 / 435.565
DANDE 22 Jan 15:15:58 15:23:47 89° 79° (E) 15:32:12 436.750
MOZHAYETS 4 22 Jan 15:16:50 15:20:14 20° 91° (E) 15:23:37
YUBILEINY 22 Jan 15:22:59 15:31:45 65° 284° (WNW) 15:40:35 435.215
ITAMSAT 1 22 Jan 15:25:58 15:30:55 46° 261° (W) 15:35:56 435.822/435.867
TISAT 1 22 Jan 15:30:29 15:33:51 24° 296° (WNW) 15:37:14 437.305
BEESAT 22 Jan 15:41:46 15:46:35 90° 126° (SE) 15:51:24 436.000
KKS-1 22 Jan 15:41:46 15:42:03 10° 86° (E) 15:42:22 437.445
SWISSCUBE 22 Jan 15:43:41 15:48:30 79° 287° (WNW) 15:53:18 437.505
CUSAT 1 22 Jan 15:46:11 15:52:40 28° 277° (W) 15:58:47 437.405
HORYU 2 22 Jan 15:51:19 15:54:06 17° 59° (ENE) 15:56:52 437.375
GOMX 1 22 Jan 15:58:20 16:02:02 20° 61° (ENE) 16:05:36 467.674
NOAA 15 22 Jan 16:01:48 16:03:49 12° 51° (NE) 16:05:51 137.62
Cubesat XI-IV 22 Jan 16:01:56 16:03:37 11° 50° (NE) 16:05:18 437.490
SO-50 22 Jan 16:03:21 16:07:55 78° 49° (NE) 16:12:23 436.795
BRITE-PL 22 Jan 16:04:45 16:10:10 47° 69° (ENE) 16:15:27 437.365/2234.400
CUBESAT XI-V 22 Jan 16:10:31 16:12:04 11° 86° (E) 16:13:37 437.345
BEESAT 3 22 Jan 16:24:20 16:28:08 53° 123° (ESE) 16:32:00 437.485
NOAA 18 22 Jan 16:25:51 16:27:45 12° 49° (NE) 16:29:39 137.9125
STARS 22 Jan 16:26:20 16:28:39 14° 89° (E) 16:30:58 437.465
DOVE 4 22 Jan 16:26:21 16:28:47 14° 59° (ENE) 16:31:09 437.250
AO-7 22 Jan 16:42:09 16:49:07 29° 267° (W) 16:56:08 29.400- 29.500
AO-85 22 Jan 16:42:26 16:44:43 14° 334° (NNW) 16:46:56 145.980
ITUPSAT 1 22 Jan 16:47:05 16:51:04 26° 297° (WNW) 16:55:03 437.325
O/OREOS (USA 219) 22 Jan 16:47:10 16:51:12 33° 253° (WSW) 16:55:14 437.305
MOZHAYETS 4 22 Jan 16:53:11 16:57:43 54° 289° (WNW) 17:02:15
CUTE-I 22 Jan 16:54:22 16:58:50 29° 62° (ENE) 17:03:20 437.470
LilacSat-2 22 Jan 16:55:01 16:57:52 20° 65° (ENE) 17:00:44 437.200
DANDE 22 Jan 16:59:49 17:05:46 24° 277° (W) 17:12:00 436.750
Cosmos 2504 22 Jan 17:02:50 17:10:08 31° 295° (WNW) 17:17:05 435.465 / 435.565
M-CUBED/EXP-1 PRIME 22 Jan 17:06:30 17:09:50 60° 106° (ESE) 17:13:04 437.505
BEESAT 2 22 Jan 17:14:22 17:18:19 76° 126° (SE) 17:22:20 435.950
KKS-1 22 Jan 17:14:52 17:19:19 86° 107° (ESE) 17:23:44 437.445
BEESAT 22 Jan 17:21:07 17:23:41 15° 304° (NW) 17:26:16 436.000
SWISSCUBE 22 Jan 17:23:22 17:25:31 13° 305° (NW) 17:27:39 437.505
YUBILEINY 22 Jan 17:25:14 17:30:39 17° 309° (NW) 17:36:06 435.215
HORYU 2 22 Jan 17:25:46 17:30:09 67° 257° (WSW) 17:34:35 437.375
GOMX 1 22 Jan 17:34:20 17:39:40 71° 258° (WSW) 17:44:43 467.674
CINEMA 3 22 Jan 17:36:52 17:39:14 15° 60° (ENE) 17:41:34 145.822/145.860
NOAA 15 22 Jan 17:37:22 17:42:36 64° 71° (ENE) 17:47:53 137.62
Cubesat XI-IV 22 Jan 17:37:26 17:42:39 61° 70° (ENE) 17:47:54 437.490
HO-68 22 Jan 17:37:35 17:43:12 25° 52° (NE) 17:48:49 435.675
AUBIESAT-1 22 Jan 17:41:01 17:44:23 61° 292° (WNW) 17:47:37 437.475
BRITE-PL 22 Jan 17:43:47 17:48:46 31° 267° (W) 17:53:40 437.365/2234.400
SO-50 22 Jan 17:45:07 17:47:48 16° 249° (WSW) 17:50:27 436.795
CUBESAT XI-V 22 Jan 17:45:25 17:50:10 89° 113° (ESE) 17:54:49 437.345
DOVE 4 22 Jan 18:00:59 18:05:54 89° 256° (WSW) 18:10:33 437.250
STARS 22 Jan 18:01:07 18:05:29 69° 287° (WNW) 18:09:49 437.465
NOAA 18 22 Jan 18:01:58 18:07:21 59° 69° (ENE) 18:12:44 137.9125
BEESAT 3 22 Jan 18:02:46 18:06:01 24° 323° (NW) 18:09:17 437.485
CUTE 1.7 + AOD 2 22 Jan 18:12:49 18:15:49 19° 62° (ENE) 18:18:51 437.475
GONETS M04 22 Jan 18:18:58 18:23:54 17° 72° (ENE) 18:28:50
LilacSat-2 22 Jan 18:28:26 18:31:57 36° 263° (W) 18:35:30 437.200
CUTE-I 22 Jan 18:33:33 18:38:40 48° 260° (W) 18:43:49 437.470
UWE-3 22 Jan 18:39:32 18:40:04 10° 56° (NE) 18:40:35 435.000/436.395/437.385
CANX-2 22 Jan 18:41:25 18:45:23 39° 69° (ENE) 18:49:23 2200.000
M-CUBED/EXP-1 PRIME 22 Jan 18:42:35 18:43:53 12° 307° (NW) 18:45:11 437.505
SEEDS 22 Jan 18:47:29 18:51:06 28° 66° (ENE) 18:54:43 437.485
COMPASS 1 22 Jan 18:48:33 18:51:37 20° 63° (ENE) 18:54:43 437.405
KKS-1 22 Jan 18:53:04 18:55:15 14° 303° (WNW) 18:57:25 437.445
BEESAT 2 22 Jan 18:53:35 18:56:34 20° 326° (NNW) 18:59:35 435.950
STRAND 1 22 Jan 18:55:00 18:58:26 18° 90° (E) 19:01:51 437.568
AAUSAT CUBESAT 2 22 Jan 18:57:16 19:00:15 19° 63° (ENE) 19:03:16 437.432
CINEMA 3 22 Jan 19:11:34 19:15:54 70° 258° (WSW) 19:20:08 145.822/145.860
Cosmos 2499 22 Jan 19:14:13 19:21:50 43° 88° (E) 19:28:57 435.465 / 435.565
GOMX 1 22 Jan 19:17:40 19:18:31 10° 275° (W) 19:19:21 467.674
NOAA 15 22 Jan 19:18:57 19:22:50 20° 269° (W) 19:26:46 137.62
Cubesat XI-IV 22 Jan 19:19:07 19:23:08 22° 269° (W) 19:27:12 437.490
Oscar 11 22 Jan 19:21:43 19:24:17 16° 60° (ENE) 19:26:52 145.826/435.025
HO-68 22 Jan 19:22:57 19:30:10 84° 253° (WSW) 19:37:26 435.675
CUBESAT XI-V 22 Jan 19:24:25 19:26:50 14° 303° (WNW) 19:29:16 437.345
AIST 2 22 Jan 19:34:55 19:38:54 49° 122° (ESE) 19:42:58 435.215
DOVE 4 22 Jan 19:42:25 19:44:10 12° 273° (W) 19:45:54 437.250
NOAA 18 22 Jan 19:44:05 19:48:23 23° 267° (W) 19:52:44 137.9125
CUTE 1.7 + AOD 2 22 Jan 19:47:08 19:51:18 52° 260° (W) 19:55:30 437.475
CUBEBUG 2 22 Jan 19:48:50 19:52:58 72° 73° (ENE) 19:57:07 437.445
DELFI C3 22 Jan 19:53:32 19:54:31 11° 58° (ENE) 19:55:31 145.870
FUNcube-1 22 Jan 20:00:08 20:03:53 35° 68° (ENE) 20:07:42 145.935
AO-85 22 Jan 20:07:18 20:09:19 13° 25° (NNE) 20:11:18 145.980
GONETS M04 22 Jan 20:10:26 20:19:04 73° 95° (E) 20:27:50
UWE-3 22 Jan 20:11:39 20:15:47 80° 75° (ENE) 20:19:58 435.000/436.395/437.385
HUMSAT D 22 Jan 20:15:17 20:16:28 11° 57° (ENE) 20:17:39 437.325/437.525
CANX-2 22 Jan 20:17:57 20:21:22 23° 267° (W) 20:24:50 2200.000
COMPASS 1 22 Jan 20:22:48 20:26:51 47° 261° (W) 20:30:58 437.405
SEEDS 22 Jan 20:22:51 20:26:41 33° 264° (W) 20:30:34 437.485
ZACube-1 22 Jan 20:24:23 20:28:29 67° 74° (ENE) 20:32:40 437.345
AAUSAT CUBESAT 2 22 Jan 20:31:20 20:35:23 49° 261° (W) 20:39:30 437.432
STRAND 1 22 Jan 20:33:00 20:38:08 70° 288° (WNW) 20:43:15 437.568
Oscar 11 22 Jan 20:55:36 20:59:54 69° 258° (WSW) 21:04:15 145.826/435.025
Cosmos 2499 22 Jan 21:07:03 21:14:56 47° 288° (WNW) 21:22:17 435.465 / 435.565
ISS 22 Jan 21:09:24 21:10:24 11° 134° (SE) 21:11:24 145.825
AIST 2 22 Jan 21:14:00 21:17:35 27° 322° (NW) 21:21:14 435.215
HO-68 22 Jan 21:14:20 21:18:57 18° 273° (W) 21:23:35 435.675
DELFI C3 22 Jan 21:24:38 21:28:40 87° 67° (ENE) 21:32:42 145.870
UNISAT 6 22 Jan 21:27:11 21:28:07 11° 87° (E) 21:29:04 437.425
BY70-1 22 Jan 21:27:11 21:28:14 11° 60° (ENE) 21:29:18 436.1900
CUBEBUG 2 22 Jan 21:28:29 21:30:07 12° 272° (W) 21:31:44 437.445
FUNcube-1 22 Jan 21:36:49 21:40:13 24° 267° (W) 21:43:40 145.935
TIGRISAT 22 Jan 21:38:36 21:40:45 13° 88° (E) 21:42:54 435.000
AO-85 22 Jan 21:46:42 21:50:36 55° 47° (NE) 21:54:27 145.980
HUMSAT D 22 Jan 21:47:14 21:51:21 85° 80° (E) 21:55:34 437.325/437.525
PRISM 22 Jan 21:47:52 21:51:50 44° 99° (E) 21:55:45 437.425
ESTCUBE 1 22 Jan 21:49:04 21:52:02 17° 59° (ENE) 21:54:59 437.505/2401.250
UWE-3 22 Jan 21:51:50 21:52:51 11° 273° (W) 21:53:52 435.000/436.395/437.385
ANTELSAT 22 Jan 21:53:39 21:56:56 20° 92° (E) 22:00:14 437.575/2403.000
ZACube-1 22 Jan 22:03:18 22:05:16 13° 272° (W) 22:07:15 437.345
GONETS M04 22 Jan 22:09:20 22:16:46 30° 298° (WNW) 22:24:19
STRAND 1 22 Jan 22:14:15 22:16:25 13° 307° (NW) 22:18:36 437.568
CUBEBUG 1 22 Jan 22:27:18 22:30:45 23° 63° (ENE) 22:34:11 437.445
50 SAT 22 Jan 22:34:40 22:35:01 10° 59° (ENE) 22:35:21 437.505
ISS 22 Jan 22:43:06 22:46:19 58° 151° (SSE) 22:49:32 145.825
AISAT 22 Jan 22:50:43 22:54:25 26° 64° (ENE) 22:58:07 437.250
BY70-1 22 Jan 22:54:53 22:57:57 58° 259° (W) 23:01:15 436.1900
BEESAT 3 22 Jan 23:00:51 23:03:48 19° 33° (NNE) 23:06:45 437.485
UNISAT 6 22 Jan 23:01:00 23:05:28 87° 101° (E) 23:10:02 437.425
JAS-2 22 Jan 23:05:32 23:12:24 44° 97° (E) 23:19:44 435.910
Cosmos 2499 22 Jan 23:08:44 23:10:17 11° 312° (NW) 23:11:51 435.465 / 435.565
RS-15 22 Jan 23:10:55 23:21:59 48° 111° (ESE) 23:33:26 29.354- 29.394
TIGRISAT 22 Jan 23:13:30 23:17:56 76° 287° (WNW) 23:22:28 435.000
VELOX 1 22 Jan 23:23:12 23:27:30 49° 70° (ENE) 23:31:48 145.980
PRISM 22 Jan 23:23:47 23:26:51 20° 298° (WNW) 23:29:53 437.425
ESTCUBE 1 22 Jan 23:23:49 23:28:20 67° 258° (WSW) 23:32:54 437.505/2401.250
HUMSAT D 22 Jan 23:27:05 23:27:37 10° 274° (W) 23:28:08 437.325/437.525
AO-85 22 Jan 23:28:00 23:30:35 17° 247° (WSW) 23:33:11 145.980
ANTELSAT 22 Jan 23:29:36 23:33:54 51° 289° (WNW) 23:38:18 437.575/2403.000
SPROUT 22 Jan 23:31:19 23:35:20 43° 70° (ENE) 23:39:22 437.525
YUBILEINY 22 Jan 23:32:41 23:39:01 21° 55° (NE) 23:45:17 435.215
UKube-1 22 Jan 23:40:09 23:43:52 29° 65° (ENE) 23:47:37 .
DX 1 22 Jan 23:46:10 23:50:18 43° 69° (ENE) 23:54:27 434.975-435.025
BEESAT 2 22 Jan 23:51:32 23:54:54 24° 37° (NE) 23:58:14 435.950
QB50P1 22 Jan 23:54:32 23:58:24 34° 97° (E) 00:02:15 145.935-145.965
POLYITAN 1 22 Jan 23:59:33 00:03:31 38° 98° (E) 00:07:30 437.675
QB50P2 23 Jan 00:00:51 00:04:54 42° 98° (E) 00:08:56 145.880/145.840
CUBEBUG 1 23 Jan 00:02:34 00:06:47 44° 261° (W) 00:11:01 437.445
50 SAT 23 Jan 00:04:03 00:07:37 81° 255° (WSW) 00:11:15 437.505
ISS 23 Jan 00:19:42 00:22:52 48° 351° (N) 00:26:03 145.825
POPSAT HIP 1 23 Jan 00:21:32 00:25:45 63° 102° (ESE) 00:29:57 437.405
AISAT 23 Jan 00:26:35 00:30:44 38° 262° (W) 00:34:53 437.250
DUCHIFAT 1 23 Jan 00:28:45 00:32:56 66° 101° (E) 00:37:08 145.980
PCSat 23 Jan 00:29:37 00:34:43 44° 115° (ESE) 00:39:52 145.827
Cosmos 2491 23 Jan 00:31:04 00:35:58 17° 72° (ENE) 00:40:53 435.465 / 435.565
NANOSAT C BR1 23 Jan 00:35:49 00:40:03 85° 104° (ESE) 00:44:17 145.865
BEESAT 3 23 Jan 00:37:53 00:41:54 79° 235° (SW) 00:45:54 437.485
AIST 1 23 Jan 00:38:57 00:43:02 42° 75° (ENE) 00:47:05
UNISAT 6 23 Jan 00:39:27 00:41:34 13° 302° (WNW) 00:43:44 437.425
ITUPSAT 1 23 Jan 00:44:34 00:46:35 13° 54° (NE) 00:48:37 437.325
TISAT 1 23 Jan 00:49:13 00:53:11 44° 70° (ENE) 00:57:10 437.305
JAS-2 23 Jan 00:50:40 00:57:25 48° 294° (WNW) 01:04:45 435.910
BUGSAT 1 23 Jan 00:51:53 00:55:45 42° 99° (E) 00:59:37 437.445
TIGRISAT 23 Jan 00:52:39 00:53:54 11° 304° (NW) 00:55:10 435.000
Cosmos 2504 23 Jan 00:56:37 01:02:58 29° 64° (ENE) 01:09:03 435.465 / 435.565
VELOX 1 23 Jan 01:00:57 01:04:13 20° 268° (W) 01:07:30 145.980
Oscar 19 23 Jan 01:07:06 01:10:54 20° 91° (E) 01:14:40 437.125/150
SPROUT 23 Jan 01:08:14 01:11:27 21° 268° (W) 01:14:42 437.525
BEESAT 23 Jan 01:15:14 01:18:54 23° 61° (ENE) 01:22:36 436.000
UKube-1 23 Jan 01:15:56 01:19:50 33° 263° (W) 01:23:47 .
SWISSCUBE 23 Jan 01:16:54 01:20:48 26° 62° (ENE) 01:24:43 437.505
RS-15 23 Jan 01:22:06 01:34:07 68° 317° (NW) 01:46:32 29.354- 29.394
DX 1 23 Jan 01:23:16 01:26:41 22° 267° (W) 01:30:07 434.975-435.025
YUBILEINY 23 Jan 01:28:36 01:37:29 79° 79° (ENE) 01:46:16 435.215
BEESAT 2 23 Jan 01:28:59 01:32:58 55° 237° (WSW) 01:36:55 435.950
QB50P1 23 Jan 01:30:31 01:34:04 27° 295° (WNW) 01:37:36 145.935-145.965
POLYITAN 1 23 Jan 01:35:43 01:39:08 24° 296° (WNW) 01:42:34 437.675
QB50P2 23 Jan 01:37:10 01:40:28 22° 296° (WNW) 01:43:45 145.880/145.840
Gurwin Techsat 1B 23 Jan 01:43:49 01:48:06 24° 92° (E) 01:52:22 435.225
ISS 23 Jan 01:56:30 01:59:41 50° 10° (N) 02:02:52 145.825
POPSAT HIP 1 23 Jan 01:58:29 02:01:04 16° 300° (WNW) 02:03:40 437.405
DUCHIFAT 1 23 Jan 02:05:40 02:08:09 16° 300° (WNW) 02:10:39 145.980
PCSat 23 Jan 02:13:11 02:18:13 38° 316° (NW) 02:23:18 145.827
NANOSAT C BR1 23 Jan 02:13:19 02:15:10 13° 302° (WNW) 02:16:59 145.865
AIST 2 23 Jan 02:14:50 02:18:04 21° 33° (NNE) 02:21:17 435.215
AIST 1 23 Jan 02:17:14 02:20:20 20° 274° (W) 02:23:25
ITUPSAT 1 23 Jan 02:18:52 02:23:37 78° 73° (ENE) 02:28:26 437.325
MOZHAYETS 4 23 Jan 02:21:57 02:25:52 28° 65° (ENE) 02:29:48
M-CUBED/EXP-1 PRIME 23 Jan 02:22:16 02:25:11 19° 58° (ENE) 02:27:58 437.505
Cosmos 2491 23 Jan 02:22:32 02:31:11 73° 95° (E) 02:39:53 435.465 / 435.565
TISAT 1 23 Jan 02:26:00 02:29:03 19° 268° (W) 02:32:06 437.305
BUGSAT 1 23 Jan 02:27:51 02:30:52 21° 297° (WNW) 02:33:54 437.445
JAS-2 23 Jan 02:38:11 02:40:59 13° 314° (NW) 02:43:51 435.910
KKS-1 23 Jan 02:41:39 02:44:29 17° 59° (ENE) 02:47:18 437.445
Oscar 19 23 Jan 02:45:32 02:50:40 62° 289° (WNW) 02:55:43 437.125/150
AO-7 23 Jan 02:46:13 02:51:42 19° 87° (E) 02:57:07 29.400- 29.500
Cosmos 2504 23 Jan 02:49:39 02:56:57 63° 267° (W) 03:03:58 435.465 / 435.565
BEESAT 23 Jan 02:51:43 02:56:21 53° 259° (W) 03:01:03 436.000
SWISSCUBE 23 Jan 02:53:48 02:58:21 45° 261° (W) 03:02:58 437.505
AUBIESAT-1 23 Jan 02:55:34 02:59:10 30° 63° (ENE) 03:02:34 437.475
CUSAT 1 23 Jan 03:07:52 03:13:24 56° 93° (E) 03:20:21 437.405
PHONESAT 2.4 23 Jan 03:14:45 03:15:46 12° 180° (S) 03:16:48 2401.200-2431.200
CUBESAT XI-V 23 Jan 03:16:25 03:19:40 19° 60° (ENE) 03:22:57 437.345
Gurwin Techsat 1B 23 Jan 03:23:11 03:28:23 54° 291° (WNW) 03:33:33 435.225
STARS 23 Jan 03:26:00 03:29:15 21° 62° (ENE) 03:32:32 437.465
YUBILEINY 23 Jan 03:26:29 03:33:21 27° 281° (WNW) 03:40:11 435.215
ISS 23 Jan 03:33:02 03:36:12 51° 210° (SSW) 03:39:23 145.825
ITAMSAT 1 23 Jan 03:34:45 03:39:48 46° 100° (E) 03:44:48 435.822/435.867
RS-15 23 Jan 03:38:10 03:49:22 38° 348° (NNW) 04:00:42 29.354- 29.394
AIST 2 23 Jan 03:52:47 03:57:04 81° 232° (SW) 04:01:18 435.215
M-CUBED/EXP-1 PRIME 23 Jan 03:55:14 03:59:23 53° 253° (WSW) 04:03:17 437.505
MOZHAYETS 4 23 Jan 03:58:39 04:02:54 37° 263° (W) 04:07:12
ITUPSAT 1 23 Jan 03:59:29 04:02:02 14° 272° (W) 04:04:37 437.325
PCSat 23 Jan 04:00:32 04:03:13 14° 340° (NNW) 04:05:56 145.827
KKS-1 23 Jan 04:16:08 04:20:34 67° 258° (WSW) 04:25:00 437.445
Cosmos 2491 23 Jan 04:21:29 04:28:54 30° 298° (WNW) 04:36:23 435.465 / 435.565
GONETS M04 23 Jan 04:22:06 04:24:45 11° 42° (NE) 04:27:24
Oscar 19 23 Jan 04:27:25 04:28:59 11° 309° (NW) 04:30:32 437.125/150
DANDE 23 Jan 04:28:36 04:32:55 77° 98° (E) 04:38:49 436.750
AUBIESAT-1 23 Jan 04:29:57 04:33:34 29° 257° (WSW) 04:37:00 437.475
AO-7 23 Jan 04:37:22 04:45:49 79° 108° (ESE) 04:54:09 29.400- 29.500
Cosmos 2504 23 Jan 04:46:40 04:48:36 11° 289° (WNW) 04:50:31 435.465 / 435.565
CUSAT 1 23 Jan 04:50:34 04:55:49 32° 299° (WNW) 05:02:11 437.405
CUBESAT XI-V 23 Jan 04:51:55 04:56:35 65° 259° (W) 05:01:19 437.345
STARS 23 Jan 05:01:04 05:05:18 49° 260° (W) 05:09:34 437.465
Cosmos 2499 23 Jan 05:01:34 05:06:05 17° 56° (NE) 05:10:31 435.465 / 435.565
Gurwin Techsat 1B 23 Jan 05:06:26 05:07:12 10° 311° (NW) 05:07:59 435.225
HORYU 2 23 Jan 05:13:47 05:16:48 18° 91° (E) 05:19:49 437.375
ITAMSAT 1 23 Jan 05:14:38 05:19:03 29° 298° (WNW) 05:23:28 435.822/435.867
O/OREOS (USA 219) 23 Jan 05:25:02 05:27:58 17° 101° (E) 05:30:56 437.305
GOMX 1 23 Jan 05:33:27 05:37:03 24° 92° (E) 05:40:30 467.674
AIST 2 23 Jan 05:33:51 05:34:48 11° 252° (WSW) 05:35:45 435.215
BRITE-PL 23 Jan 05:44:42 05:49:38 78° 103° (ESE) 05:54:07 437.365/2234.400
PCSat 23 Jan 05:48:11 05:49:13 10° 7° (N) 05:50:14 145.827
NOAA 15 23 Jan 05:49:49 05:53:24 18° 89° (E) 05:56:56 137.62
Cubesat XI-IV 23 Jan 05:51:51 05:55:27 18° 89° (E) 05:59:02 437.490
RS-15 23 Jan 05:54:14 06:05:52 43° 22° (NNE) 06:17:18 29.354- 29.394
DOVE 4 23 Jan 05:57:17 05:59:58 16° 90° (E) 06:02:37 437.250
LilacSat-2 23 Jan 05:58:24 06:01:10 18° 92° (E) 06:03:55 437.200
DANDE 23 Jan 06:13:32 06:16:48 17° 307° (NW) 06:20:38 436.750
STRAND 1 23 Jan 06:13:58 06:18:36 36° 65° (ENE) 06:23:16 437.568
GONETS M04 23 Jan 06:16:09 06:24:33 45° 69° (ENE) 06:32:55
NOAA 18 23 Jan 06:21:14 06:24:54 18° 90° (E) 06:28:33 137.9125
AO-7 23 Jan 06:30:51 06:37:52 31° 310° (NW) 06:44:51 29.400- 29.500
CUTE-I 23 Jan 06:46:30 06:51:43 51° 100° (E) 06:56:55 437.470
HO-68 23 Jan 06:48:32 06:52:32 15° 85° (E) 06:56:30 435.675
HORYU 2 23 Jan 06:49:19 06:53:42 57° 289° (WNW) 06:58:05 437.375
Cosmos 2499 23 Jan 06:53:23 07:00:35 80° 79° (E) 07:07:40 435.465 / 435.565
O/OREOS (USA 219) 23 Jan 07:02:30 07:06:55 59° 299° (WNW) 07:11:22 437.305
CINEMA 3 23 Jan 07:02:48 07:05:53 19° 92° (E) 07:09:01 145.822/145.860
GOMX 1 23 Jan 07:11:13 07:15:18 37° 292° (WNW) 07:19:12 467.674
BRITE-PL 23 Jan 07:24:30 07:27:24 16° 304° (WNW) 07:30:11 437.365/2234.400
NOAA 15 23 Jan 07:28:24 07:33:44 73° 288° (WNW) 07:39:00 137.62
CUTE 1.7 + AOD 2 23 Jan 07:28:49 07:32:08 21° 92° (E) 07:35:24 437.475
PCSat 23 Jan 07:30:44 07:34:49 21° 33° (NNE) 07:38:55 145.827
Cubesat XI-IV 23 Jan 07:30:45 07:36:05 73° 288° (WNW) 07:41:25 437.490
LilacSat-2 23 Jan 07:31:58 07:35:38 41° 289° (WNW) 07:39:18 437.200
DOVE 4 23 Jan 07:33:58 07:38:03 51° 289° (WNW) 07:42:03 437.250
CUBEBUG 2 23 Jan 07:37:24 07:39:07 12° 88° (E) 07:40:50 437.445
STRAND 1 23 Jan 07:53:11 07:57:47 34° 264° (W) 08:02:27 437.568
CANX-2 23 Jan 07:58:10 08:02:21 47° 99° (E) 08:06:29 2200.000
UWE-3 23 Jan 07:58:46 08:00:51 13° 88° (E) 08:02:58 435.000/436.395/437.385
SO-50 23 Jan 08:00:31 08:05:12 68° 125° (SE) 08:09:49 436.795
NOAA 18 23 Jan 08:00:41 08:06:10 75° 289° (WNW) 08:11:36 137.9125
COMPASS 1 23 Jan 08:02:17 08:05:32 21° 92° (E) 08:08:46 437.405
SEEDS 23 Jan 08:02:41 08:06:30 31° 95° (E) 08:10:18 437.485
RS-15 23 Jan 08:07:48 08:20:18 85° 51° (NE) 08:32:21 29.354- 29.394
AAUSAT CUBESAT 2 23 Jan 08:10:21 08:13:28 20° 92° (E) 08:16:34 437.432
ZACube-1 23 Jan 08:11:15 08:12:13 11° 86° (E) 08:13:11 437.345
GONETS M04 23 Jan 08:13:08 08:21:30 49° 272° (W) 08:29:52
AO-7 23 Jan 08:26:37 08:27:59 10° 335° (NNW) 08:29:20 29.400- 29.500
CUTE-I 23 Jan 08:27:04 08:31:30 27° 299° (WNW) 08:35:56 437.470
UNISAT 6 23 Jan 08:28:56 08:31:21 15° 59° (ENE) 08:33:47 437.425
